[[{"header":{"parameterUnit":"m.s-1","parameterCategory":1,"la1":30.2991,"la2":30.254,"lo1":-89.0895,"lo2":-89.0444,"dy":0.0017,"dx":0.0017,"nx":28,"ny":28,"refTime":"2026-02-11T03:00:00:Z","depth":0,"parameterNumber":2,"parameterNumberName":"U-component_of_WINDS"},"data":[0,0,0,0,0,0,0,0,0,0,0,0,0,0,0,0,0,0,0,0,0,0,0,0,0,0,0,0,0,0,0,0,0,0,0,0,0,0,0,0,0,0,0,0,0,0,0,0,0,0,0,0,0,0,0,0,0,0,-0.4257,-0.4257,0,-0.4277,-0.4277,-0.4277,-0.4277,-0.4276,-0.4276,-0.4276,-0.4298,-0.4298,-0.4299,0,0,0,0,0,0,0,0,0,0,0,0,0,-0.4218,-0.4219,-0.4257,-0.4257,-0.4257,-0.4277,-0.4277,-0.4277,-0.4277,-0.4276,-0.4276,-0.4276,-0.4297,-0.4298,-0.4299,0,0,0,0,0,0,0,0,0,0,0,0,0,-0.4236,-0.4219,-0.4257,-0.4259,-0.426,-0.4277,-0.4277,-0.4277,-0.4277,-0.4276,-0.4276,-0.4276,-0.4297,-0.4298,-0.4299,-0.4316,0,0,-0.4303,-0.4304,0,0,0,0,0,0,0,0,-0.4235,-0.4238,-0.4259,-0.4259,-0.426,-0.4274,-0.4272,-0.429,-0.4277,-0.427,-0.4276,-0.4275,-0.429,-0.4292,-0.4297,-0.4317,-0.4318,-0.4303,-0.4304,-0.4305,-0.4305,0,0,0,0,0,0,0,-0.4234,-0.4237,-0.4265,-0.4259,-0.4259,-0.426,-0.4262,-0.4275,-0.4282,-0.4271,-0.4271,-0.4273,-0.429,-0.4295,-0.4297,-0.4318,-0.4303,-0.4304,-0.4305,-0.4306,-0.4352,-0.4352,0,0,0,0,0,0,-0.4232,-0.4236,-0.4264,-0.4265,-0.4246,-0.4261,-0.4263,-0.427,-0.4282,-0.4284,-0.4274,-0.4273,-0.4293,-0.4296,-0.4298,-0.4317,-0.4305,-0.4306,-0.4307,-0.4351,-0.4352,-0.4352,0,0,0,0,0,0,-0.4231,-0.4235,-0.4263,-0.4251,-0.4254,-0.4262,-0.4269,-0.427,-0.4275,-0.4284,-0.4286,-0.4277,-0.4293,-0.4296,-0.4311,-0.4318,-0.4306,-0.4308,-0.4351,-0.4351,-0.4352,-0.4356,0,0,0,0,0,0,-0.423,-0.4234,-0.424,-0.4251,-0.4255,-0.4276,-0.427,-0.4271,-0.4277,-0.4277,-0.4288,-0.429,-0.4293,-0.4309,-0.4312,-0.4319,-0.4309,-0.435,-0.4351,-0.4352,-0.4355,-0.4356,-0.4358,0,0,0,0,0,-0.4229,-0.4241,-0.4241,-0.4244,-0.4263,-0.4276,-0.4279,-0.4282,-0.4278,-0.4284,-0.429,-0.4289,-0.4317,-0.4311,-0.4314,-0.4322,-0.435,-0.4351,-0.4352,-0.4354,-0.4356,-0.4358,0,0,0,0,0,0,-0.4232,-0.4243,-0.4242,-0.4258,-0.4266,-0.4276,-0.4284,-0.4284,-0.4294,-0.4293,-0.4297,-0.43,-0.4314,-0.432,-0.4313,-0.4338,-0.4333,-0.4334,-0.4334,-0.4335,-0.4337,-0.4335,-0.431,0,0,0,0,0,-0.4234,-0.4244,-0.4253,-0.4266,-0.427,-0.4276,-0.4282,-0.4284,-0.4293,-0.4297,-0.4303,-0.4312,-0.4322,-0.4329,-0.434,-0.4356,-0.4358,-0.4363,-0.4364,-0.4365,-0.4367,-0.4375,-0.4377,-0.4356,-0.4356,-0.4356,0,0,-0.424,-0.4247,-0.4253,-0.4267,-0.4273,-0.4283,-0.4279,-0.429,-0.4298,-0.4298,-0.4312,-0.4318,-0.4328,-0.4343,-0.435,-0.4348,-0.4373,-0.4367,-0.4367,-0.4368,-0.4376,-0.4378,-0.438,-0.4356,-0.4356,-0.4356,0,0,-0.4254,-0.4261,-0.4272,-0.4278,-0.4288,-0.4292,-0.4295,-0.4304,-0.4308,-0.4322,-0.4322,-0.4332,-0.435,-0.4357,-0.4363,-0.438,-0.4379,-0.4383,-0.439,-0.4398,-0.44,-0.4401,-0.4406,-0.4408,-0.4384,-0.4384,-0.4384,0,-0.4259,-0.4274,-0.4278,-0.4289,-0.4295,-0.4295,-0.4307,-0.4313,-0.4326,-0.433,-0.4327,-0.435,-0.4356,-0.4373,-0.4377,-0.4382,-0.4385,-0.4381,-0.4399,-0.4401,-0.4402,-0.4407,-0.4409,-0.4385,-0.4385,-0.4385,-0.4384,0,-0.428,-0.429,-0.4298,-0.431,-0.4317,-0.4328,-0.4333,-0.434,-0.4342,-0.4346,-0.436,-0.4369,-0.438,-0.4385,-0.4386,-0.4402,-0.44,-0.4398,-0.4393,-0.4404,-0.4409,-0.4411,-0.4385,-0.4385,-0.4385,-0.4385,0,0,-0.4297,-0.431,-0.4312,-0.4317,-0.4328,-0.4336,-0.4348,-0.4358,-0.4364,-0.4373,-0.4382,-0.4397,-0.4396,-0.4402,-0.4405,-0.4412,-0.4424,-0.441,-0.441,-0.4411,-0.4441,-0.4442,-0.4444,-0.4424,-0.4425,-0.4425,-0.444,0,-0.4311,-0.4331,-0.4334,-0.4351,-0.436,-0.4361,-0.4371,-0.4378,-0.4383,-0.4392,-0.4397,-0.4407,-0.4404,-0.4408,-0.4416,-0.4421,-0.443,-0.442,-0.4433,-0.4433,-0.4429,-0.4447,-0.4447,-0.4461,-0.4442,-0.4442,-0.4442,0,-0.4331,-0.434,-0.4358,-0.4367,-0.4371,-0.4379,-0.4389,-0.4398,-0.4407,-0.4409,-0.4417,-0.4418,-0.443,-0.4425,-0.4441,-0.4434,-0.4439,-0.4443,-0.4443,-0.4444,-0.4438,-0.4447,-0.4465,-0.4467,-0.4446,-0.4445,-0.4445,0,-0.4341,-0.4357,-0.4369,-0.4374,-0.4385,-0.4391,-0.4396,-0.4404,-0.441,-0.4419,-0.4423,-0.4434,-0.4439,-0.4447,-0.4452,-0.4448,-0.4467,-0.4462,-0.4469,-0.4469,-0.4473,-0.4473,-0.4492,-0.4478,-0.4478,-0.4478,-0.4478,0,-0.4356,-0.4367,-0.4373,-0.4381,-0.4393,-0.4397,-0.4409,-0.4414,-0.4421,-0.4429,-0.4431,-0.4439,-0.4445,-0.4454,-0.4458,-0.447,-0.4473,-0.4475,-0.4476,-0.4475,-0.4474,-0.4478,-0.4477,-0.4478,-0.4478,-0.4478,-0.4478,0,-0.4369,-0.4373,-0.4387,-0.4396,-0.4398,-0.4407,-0.4415,-0.4422,-0.4427,-0.4437,-0.444,-0.4447,-0.4458,-0.4463,-0.4477,-0.4479,-0.4493,-0.4493,-0.449,-0.449,-0.4496,-0.4495,-0.4518,-0.452,-0.4505,-0.4505,-0.4506,0,-0.4378,-0.4386,-0.4396,-0.4401,-0.4406,-0.4416,-0.4422,-0.4426,-0.4432,-0.4443,-0.4449,-0.446,-0.4468,-0.4485,-0.4492,-0.4502,-0.4502,-0.4509,-0.4504,-0.4502,-0.4502,-0.4501,-0.4501,-0.451,-0.451,-0.451,-0.4511,0,-0.4394,-0.4396,-0.4404,-0.4414,-0.4421,-0.4429,-0.4436,-0.4441,-0.4447,-0.4454,-0.4464,-0.4471,-0.4484,-0.4495,-0.4505,-0.4511,-0.4511,-0.4512,-0.4514,-0.4513,-0.451,-0.4511,-0.4492,-0.4512,-0.4512,-0.4511,-0.4511,-0.4511,-0.4404,-0.4411,-0.4419,-0.4429,-0.4435,-0.4442,-0.4449,-0.4454,-0.4463,-0.4474,-0.4476,-0.4487,-0.4496,-0.451,-0.4515,-0.4524,-0.4523,-0.4526,-0.4527,-0.4527,-0.4527,-0.4509,-0.4526,-0.4526,-0.4526,-0.4526,-0.4526,0,-0.442,-0.4425,-0.4434,-0.4444,-0.4451,-0.4451,-0.446,-0.4466,-0.4475,-0.4483,-0.4491,-0.4503,-0.4513,-0.4521,-0.4531,-0.4537,-0.4537,-0.4539,-0.4538,-0.4539,-0.4528,-0.4525,-0.4538,-0.4538,-0.4538,-0.4538,-0.4538,-0.4538,-0.4429,-0.444,-0.4443,-0.4457,-0.4463,-0.4473,-0.4478,-0.4484,-0.449,-0.4503,-0.4512,-0.4516,-0.4524,-0.4534,-0.4544,-0.4545,-0.4549,-0.4551,-0.4552,-0.4542,-0.454,-0.4539,-0.4536,-0.4552,-0.4552,-0.4563,-0.4563,-0.4563]},{"header":{"parameterUnit":"m.s-1","parameterCategory":1,"la1":30.2991,"la2":30.254,"lo1":-89.0895,"lo2":-89.0444,"dy":0.0017,"dx":0.0017,"nx":28,"ny":28,"refTime":"2026-02-11T03:00:00:Z","depth":0,"parameterNumber":3,"parameterNumberName":"V-component_of_WINDS"},"data":[0,0,0,0,0,0,0,0,0,0,0,0,0,0,0,0,0,0,0,0,0,0,0,0,0,0,0,0,0,0,0,0,0,0,0,0,0,0,0,0,0,0,0,0,0,0,0,0,0,0,0,0,0,0,0,0,0,0,1.5741,1.5741,0,1.5733,1.5732,1.5732,1.5726,1.5726,1.5726,1.5726,1.5714,1.5714,1.5714,0,0,0,0,0,0,0,0,0,0,0,0,0,1.5751,1.5751,1.5741,1.5741,1.5741,1.5733,1.5732,1.5732,1.5726,1.5726,1.5726,1.5726,1.5714,1.5714,1.5714,0,0,0,0,0,0,0,0,0,0,0,0,0,1.5745,1.5751,1.5741,1.5737,1.5737,1.5733,1.5732,1.5732,1.5726,1.5726,1.5726,1.5726,1.5715,1.5714,1.5714,1.5713,0,0,1.5713,1.5712,0,0,0,0,0,0,0,0,1.5745,1.5745,1.5738,1.5737,1.5737,1.573,1.5732,1.5726,1.5726,1.573,1.5726,1.5726,1.572,1.5719,1.5717,1.5712,1.5712,1.5713,1.5712,1.5712,1.5712,0,0,0,0,0,0,0,1.5746,1.5745,1.5738,1.5738,1.5737,1.5735,1.5734,1.5731,1.5725,1.573,1.5729,1.5728,1.5719,1.5718,1.5717,1.5712,1.5713,1.5712,1.5712,1.5712,1.5707,1.5707,0,0,0,0,0,0,1.5747,1.5745,1.5738,1.5738,1.5741,1.5735,1.5734,1.5732,1.5725,1.5724,1.5728,1.5728,1.5718,1.5717,1.5716,1.5716,1.5712,1.5712,1.5712,1.5706,1.5707,1.5707,0,0,0,0,0,0,1.5747,1.5747,1.5738,1.5741,1.574,1.5735,1.5733,1.5732,1.5731,1.5724,1.5723,1.5728,1.5718,1.5717,1.5714,1.5715,1.5712,1.5711,1.5706,1.5706,1.5707,1.5714,0,0,0,0,0,0,1.5748,1.5747,1.5747,1.5741,1.574,1.5737,1.5733,1.5732,1.573,1.573,1.5723,1.5722,1.5718,1.5715,1.5714,1.5715,1.5711,1.5706,1.5706,1.5707,1.5713,1.5714,1.5714,0,0,0,0,0,1.5748,1.5748,1.5747,1.5746,1.574,1.5737,1.5736,1.5732,1.573,1.573,1.5726,1.5722,1.5715,1.5715,1.5713,1.5714,1.5706,1.5706,1.5707,1.5713,1.5714,1.5714,0,0,0,0,0,0,1.5752,1.5747,1.5746,1.5744,1.5741,1.5736,1.5735,1.5733,1.5729,1.5729,1.5723,1.5722,1.572,1.5716,1.5716,1.5713,1.571,1.571,1.5715,1.5716,1.5717,1.5718,1.5711,0,0,0,0,0,1.5753,1.5752,1.5747,1.5746,1.5745,1.5741,1.5739,1.5736,1.5733,1.5731,1.5727,1.5723,1.572,1.5718,1.5714,1.5713,1.5711,1.5713,1.5713,1.5714,1.5714,1.5714,1.5714,1.5707,1.5707,1.5707,0,0,1.5755,1.5752,1.5751,1.5747,1.5745,1.5743,1.5739,1.5737,1.5736,1.573,1.5728,1.5725,1.572,1.5718,1.5717,1.5715,1.5716,1.5714,1.5715,1.5714,1.5714,1.5715,1.5715,1.5707,1.5707,1.5707,0,0,1.5757,1.5755,1.5754,1.5752,1.5748,1.5746,1.5746,1.5741,1.5739,1.5737,1.5733,1.5731,1.5725,1.5722,1.572,1.5723,1.5719,1.5721,1.5725,1.5725,1.5725,1.5726,1.5727,1.5728,1.5722,1.5722,1.5722,0,1.5759,1.5757,1.5754,1.5753,1.5751,1.5747,1.5747,1.5744,1.574,1.5738,1.5737,1.5731,1.5727,1.5725,1.5726,1.5724,1.5724,1.5722,1.5726,1.5726,1.5726,1.5728,1.5728,1.5722,1.5722,1.5722,1.5722,0,1.576,1.5759,1.5759,1.5756,1.5755,1.5754,1.575,1.5749,1.5746,1.5743,1.5741,1.5737,1.5733,1.5733,1.573,1.573,1.5729,1.5727,1.5724,1.5727,1.5729,1.5729,1.5722,1.5722,1.5722,1.5722,0,0,1.5764,1.5761,1.5761,1.576,1.5756,1.5755,1.5754,1.5751,1.5751,1.5747,1.5747,1.5743,1.5741,1.5738,1.5735,1.5735,1.5738,1.5732,1.5732,1.5734,1.5739,1.5742,1.5743,1.5736,1.5736,1.5736,1.574,0,1.5766,1.5765,1.5763,1.5763,1.5762,1.5758,1.5757,1.5755,1.5753,1.5751,1.5748,1.5746,1.5743,1.5742,1.5741,1.5738,1.5739,1.5737,1.5735,1.5735,1.5737,1.5743,1.5745,1.5749,1.574,1.574,1.5741,0,1.5768,1.5767,1.5767,1.5765,1.5764,1.5764,1.5762,1.576,1.5758,1.5756,1.5754,1.5751,1.575,1.5747,1.5745,1.5744,1.5743,1.5741,1.5741,1.5741,1.5738,1.5744,1.575,1.5751,1.5741,1.5741,1.5741,0,1.5772,1.577,1.577,1.577,1.5766,1.5766,1.5765,1.5762,1.5761,1.5759,1.5759,1.5756,1.5755,1.5753,1.5749,1.5747,1.5748,1.5745,1.5747,1.5747,1.5747,1.5747,1.5754,1.5746,1.5746,1.5746,1.5746,0,1.5775,1.5775,1.5772,1.5772,1.5773,1.577,1.577,1.5768,1.5766,1.5765,1.5762,1.5761,1.5756,1.5755,1.5752,1.5752,1.5751,1.5749,1.5749,1.575,1.575,1.5749,1.5749,1.5746,1.5746,1.5746,1.5746,0,1.5779,1.5777,1.5777,1.5775,1.5774,1.5775,1.5773,1.5772,1.577,1.577,1.5769,1.5766,1.5764,1.5761,1.5758,1.5756,1.5756,1.5755,1.5758,1.5757,1.576,1.576,1.5767,1.5768,1.5758,1.5758,1.5758,0,1.5781,1.5781,1.578,1.578,1.5779,1.5778,1.5778,1.5775,1.5775,1.5772,1.5773,1.5771,1.577,1.5768,1.5765,1.5763,1.5761,1.5764,1.5761,1.5763,1.5762,1.5762,1.5763,1.5765,1.5765,1.5765,1.5765,0,1.5785,1.5784,1.5784,1.5784,1.5784,1.5783,1.5782,1.5782,1.5779,1.5779,1.5778,1.5777,1.5775,1.5774,1.5772,1.577,1.5767,1.5766,1.5766,1.5768,1.577,1.577,1.576,1.5766,1.5766,1.5766,1.5766,1.5766,1.5788,1.5789,1.5789,1.5789,1.5788,1.5788,1.5788,1.5786,1.5786,1.5785,1.5783,1.5783,1.5781,1.5778,1.5776,1.5776,1.5774,1.5775,1.5775,1.5775,1.5776,1.577,1.5775,1.5775,1.5775,1.5775,1.5775,0,1.5793,1.5793,1.5793,1.5793,1.5793,1.5791,1.579,1.5791,1.5791,1.579,1.5789,1.5789,1.5788,1.5785,1.5784,1.5784,1.5783,1.5784,1.5784,1.5784,1.5777,1.5777,1.5785,1.5785,1.5785,1.5785,1.5785,1.5785,1.5795,1.5797,1.5796,1.5797,1.5797,1.5797,1.5797,1.5797,1.5796,1.5796,1.5796,1.5795,1.5793,1.5792,1.5791,1.579,1.579,1.5792,1.5791,1.5785,1.5784,1.5783,1.5783,1.5792,1.5792,1.5798,1.5798,1.5798]}]]